User: anonymous   Login
Location: Aragoneses
(41.0275°N, 4.3847°W)
Time: 16:04:53
(UTC+00:00)
Language:

SAR-Lupe-3 - Orbit

View from above orbital plane
View from above orbital plane
View from above satellite
View from above satellite

Ground track
Ground track

The orbit is defined by the following mean orbital elements,

1 32283U          26014.53811043 +.00000000 +00000-0 +21076-3 0 00008
2 32283  98.1013 203.7852 0004085 147.7074 212.4478 16.47191300    06
Epoch (UTC): 14 January 2026 12:54:52
Eccentricity: 0.0004085
inclination: 98.1013°
perigee height: 144 km
apogee height: 149 km
right ascension of ascending node: 203.7852°
argument of perigee: 147.7074°
revolutions per day: 16.47191300
mean anomaly at epoch: 212.4478°

The dashed part of the orbit path shows where the satellite is in the earth's shadow,  

DLR